{"data":{"norad_id":67180,"epoch":"2026-05-24T23:30:18.948672Z","epoch_age_seconds":87501,"freshness":"FRESH","line1":"1 67180U 25303T   26144.97938598  .00015361  00000+0  56629-3 0  9996","line2":"2 67180  43.0042 239.7874 0001583 281.5377  78.5297 15.27595986 24402","mean_motion":15.27595986,"eccentricity":0.0001583,"inclination_deg":43.0042,"raan_deg":239.7874,"arg_perigee_deg":281.5377,"mean_anomaly_deg":78.5297,"bstar":0.00056629,"rev_number":2440,"period_min":94.265762230145,"perigee_km":481.91511044057,"apogee_km":484.08734680375,"semimajor_km":6861.1382286222,"source":"CELESTRAK","updated_at":"2026-05-25T13:38:21.483365Z"}}